Weather History for Millington, TN

Change the Weather History Date:

Monday, February 4, 2013

  Actual Average Record
Temperature  
Mean Temperature 44 °F -  
Max Temperature 55 °F 49 °F 73 °F (2008)
Min Temperature 33 °F 34 °F 21 °F (2007)
Degree Days  
Heating Degree Days 21    
Moisture  
Dew Point 34 °F    
Average Humidity 69    
Maximum Humidity 93    
Minimum Humidity 41    
Precipitation  
Precipitation 0.00 in - - ()
Sea Level Pressure  
Sea Level Pressure 30.00 in    
Wind  
Wind Speed 3 mph (South)    
Max Wind Speed 17 mph    
Max Gust Speed -    
Visibility 10 miles    
Events Rain    
Averages and records for this station are not official NWS values.
T = Trace of Precipitation, MM = Missing Value Source: NWS Daily Summary

Daily Weather History Graph

Daily Weather History Graph

Search for Another Location

Airport:

Trip Planner

Search our weather history database for the weather conditions in past years. The results will help you decide how hot, cold, wet, or windy it might be!

Date:

Astronomy

Feb. 04, 2013 Rise Set
Actual Time 6:56 AM CST 5:31 PM CST
Civil Twilight 6:29 AM CST 5:57 PM CST
Nautical Twilight 5:59 AM CST 6:27 PM CST
Astronomical Twilight 5:29 AM CST 6:57 PM CST
Moon 1:29 AM CST (2/4) 11:57 AM CST (2/4)
Length of Visible Light 11h 27m
Length of Day
10h 34m
Last Quarter, 37% of the Moon is Illuminated
Feb 4
Last Quarter
Feb 10
New
Feb 17
First Quarter
Feb 25
Full
Mar 4
Last Quarter

Hourly Weather History & Observations

Time (CST) Temp. Windchill Dew Point Humidity Pressure Visibility Wind Dir Wind Speed Gust Speed Precip Events Conditions
12:55 AM 35.6 °F - 26.6 °F 70% 30.10 in 10.0 mi Calm Calm - N/A   Clear
1:55 AM 35.6 °F - 28.4 °F 75% 30.09 in 10.0 mi Calm Calm - N/A   Clear
2:15 AM 37.4 °F - 24.8 °F 60% 30.09 in 10.0 mi Calm Calm - N/A   Clear
2:35 AM 35.6 °F - 28.4 °F 75% 30.09 in 10.0 mi Calm Calm - N/A   Clear
2:55 AM 35.6 °F - 28.4 °F 75% 30.09 in 10.0 mi Calm Calm - N/A   Clear
3:15 AM 35.6 °F 32.8 °F 26.6 °F 70% 30.08 in 10.0 mi East 3.5 mph - N/A   Clear
4:55 AM 33.8 °F 30.8 °F 28.4 °F 81% 30.05 in 10.0 mi East 3.5 mph - N/A   Clear
5:55 AM 39.2 °F 34.2 °F 28.4 °F 65% 30.02 in 10.0 mi SE 6.9 mph - N/A   Clear
6:55 AM 39.2 °F 35.0 °F 28.4 °F 65% 30.01 in 10.0 mi SE 5.8 mph - N/A   Clear
7:55 AM 41.0 °F 39.0 °F 28.4 °F 61% 30.03 in 10.0 mi SE 3.5 mph - N/A   Scattered Clouds
8:55 AM 44.6 °F 41.4 °F 28.4 °F 53% 30.02 in 10.0 mi SSE 5.8 mph - N/A   Overcast
9:55 AM 46.4 °F 43.5 °F 30.2 °F 53% 30.03 in 10.0 mi SSE 5.8 mph - N/A   Overcast
10:55 AM 48.2 °F - 30.2 °F 50% 30.01 in 10.0 mi SSE 6.9 mph - N/A   Overcast
11:55 AM 53.6 °F - 30.2 °F 41% 29.99 in 10.0 mi South 8.1 mph - N/A   Overcast
12:55 PM 55.4 °F - 32.0 °F 41% 29.96 in 10.0 mi SW 9.2 mph - N/A   Overcast
1:55 PM 53.6 °F - 33.8 °F 47% 29.96 in 10.0 mi SW 17.3 mph - N/A   Overcast
2:55 PM 51.8 °F - 37.4 °F 58% 29.94 in 10.0 mi SW 8.1 mph - N/A   Overcast
3:55 PM 50.0 °F - 39.2 °F 66% 29.93 in 10.0 mi South 3.5 mph - N/A   Overcast
4:55 PM 48.2 °F - 39.2 °F 71% 29.92 in 10.0 mi South 5.8 mph - N/A Rain Light Rain
5:55 PM 50.0 °F - 41.0 °F 71% 29.93 in 10.0 mi WSW 4.6 mph - N/A Rain Light Rain
6:55 PM 48.2 °F - 42.8 °F 82% 29.94 in 7.0 mi SW 3.5 mph - N/A Rain Light Rain
7:55 PM 46.4 °F - 44.6 °F 93% 29.94 in 7.0 mi Calm Calm - N/A Rain Light Rain
8:55 PM 46.4 °F - 44.6 °F 93% 29.95 in 10.0 mi Calm Calm - N/A   Overcast
9:55 PM 48.2 °F - 44.6 °F 87% 29.95 in 10.0 mi Calm Calm - N/A   Overcast
10:55 PM 48.2 °F - 44.6 °F 87% 29.94 in 10.0 mi Calm Calm - N/A   Overcast
11:55 PM 46.4 °F - 44.6 °F 93% 29.94 in 10.0 mi Calm Calm - N/A   Overcast